星链-1551 (STARLINK-1551 )

导读

STARLINK-1551是美国太空探索技术公司Starlink星链卫星互联网项目的卫星,于2020年8月7日发射升空。作为星链星座的组成部分,它旨在为全球提供低延迟、高速率的宽带互联网服务,依托低轨轨道部署,助力实现全球覆盖的卫星互联网组网,服务各类地面网络覆盖不足区域的网络需求。

Basic Information
目录编号:
46075
目录名称:
STARLINK-1551
国际标识:
2020-055BA
轨道中心:
EARTH
卫星名称:
星链-1551
卫星全名:
星链-1551 (STARLINK-1551 )
卫星状态:
在轨 (已飞行2229 天)
发射日期:
2020-08-07 UTC
国别 :
美国 (US)
星等 :
--
This satellite is enrolled in the Space Conjunction Data Service (SCDS) and the current flight risk assessment level is: No High Risk
Orbit Information
数据来源 国际轨道数据
星历时间: 2026-09-13T21:20:37+0800
13小时前
查看轨道信息
半长轴: 6848.818km
偏心率: 0.0001187
轨道倾角: 53.159°
近地点辐角 85.623°
升交点赤经 307.424°
平近点角 274.491°
近地点: 469.868km
远地点: 471.494km
周期: 94.012分钟
每日圈数: 15.317199
Detailed Information
固有亮度:
5
最大亮度:
2.5
卫星平台:
Starlink V1.0
覆盖范围:
全球
运营商:
太空探索技术公司
运营商所在国:
美国
制造商(研发单位):
太空探索技术公司
制造商所在国:
美国
使用方式:
暂无
Satellite Introduction
星链(Starlink)计划是由太空探索技术公司(SpaceX)提出的一个巨型低轨卫星互联网星座项目,计划在2019年至2024年间在太空搭建由约1.2万颗卫星组成的“星链”网络,其中1584颗将部署在地球上空550千米处的近地轨道,并从2020年开始工作。该卫星仍在工作。
2D Orbit Map
3D Orbit Map
Orbit Altitude Analysis Chart
Orbit Inclination Analysis Chart
Orbit Comprehensive Analysis Chart
View Comprehensive Chart
Conjunction Data List
Event ID Objects TCA Miss Dist (km) Collision Risk Probability Collision Risk Index (CRI) Action
CDM_260914-063104-607506-874821
2026-09-14T
06:31:45+0000
2.755 km
极远距离
1.496278E-6 低风险 0.39
CDM_260915-183704-607506-874121
2026-09-15T
18:37:13+0000
2.832 km
极远距离
1.439436E-6 低风险 0.38
CDM_260915-184104-607506-867121
2026-09-15T
18:41:06+0000
2.861 km
极远距离
1.416462E-6 低风险 0.38
CDM_260915-042304-607506-545021
2026-09-15T
04:23:31+0000
2.953 km
极远距离
1.359407E-6 低风险 0.38
Miss Distance Evolution Trend with All Objects Subscribe to Flight Safety Assessment
Collision Probability Evolution Trend with All Objects Subscribe to Flight Safety Assessment